DW4221 Weather Reports


time (UTC)temp
C
wind
direction
speed
KPH
gust
KPH
rain 1hr
cm
rain 24hr
cm
rain mn
cm
humidity
%
barometer
mb
20260507170055 6 292 3.2 14.5 0.00 0.00 0.00 55 1009.7
20260507164554 5 257 3.2 17.7 0.00 0.00 0.00 59 1010.0
20260507163058 6 213 4.8 16.1 0.00 0.00 0.00 54 1009.8
20260507161559 6 241 6.4 19.3 0.00 0.00 0.00 53 1010.1
20260507160057 6 297 4.8 25.7 0.00 0.00 0.00 53 1010.1
20260507154559 6 349 3.2 16.1 0.00 0.00 0.00 56 1010.2
20260507153102 6 279 4.8 17.7 0.00 0.00 0.00 56 1010.2
20260507151552 6 265 4.8 16.1 0.00 0.00 0.00 59 1010.2
20260507150105 6 240 4.8 14.5 0.00 0.00 0.00 59 1010.4
20260507144556 6 257 6.4 22.5 0.00 0.00 0.00 59 1010.5
20260507143105 5 269 3.2 11.3 0.00 0.00 0.00 62 1010.8
20260507141557 5 82 3.2 17.7 0.00 0.00 0.00 64 1010.6
20260507140056 3 14 4.8 14.5 0.00 0.00 0.00 67 1010.9
20260507134601 3 313 6.4 17.7 0.00 0.00 0.00 69 1010.9
20260507133100 3 263 4.8 14.5 0.00 0.00 0.00 72 1010.8
20260507131557 1 276 1.6 6.4 0.00 0.00 0.00 78 1010.8
20260507124556 0 234 1.6 6.4 0.00 0.00 0.00 85 1010.9
20260507123053 -1 0 0.0 0.0 0.00 0.00 0.00 88 1011.0
20260507121601 -2 0 0.0 0.0 0.00 0.00 0.00 91 1011.0
20260507120056 -3 0 0.0 0.0 0.00 0.00 0.00 92 1011.0
20260507114559 -4 0 0.0 0.0 0.00 0.00 0.00 93 1010.9
20260507113052 -5 0 0.0 0.0 0.00 0.00 0.00 92 1010.7
20260507111551 -5 0 0.0 0.0 0.00 0.00 0.00 92 1010.9
20260507110059 -5 0 0.0 0.0 0.00 0.00 0.00 91 1010.7
20260507104555 -5 0 0.0 0.0 0.00 0.00 0.00 90 1010.8
20260507103115 -5 0 0.0 0.0 0.00 0.00 0.00 91 1011.0
20260507101556 -5 0 0.0 0.0 0.00 0.00 0.00 91 1010.7
20260507100110 -5 0 0.0 0.0 0.00 0.00 0.00 90 1010.9
20260507094601 -5 0 0.0 0.0 0.00 0.00 0.00 89 1011.0
20260507093051 -5 0 0.0 0.0 0.00 0.00 0.00 89 1011.1
20260507091556 -4 0 0.0 0.0 0.00 0.00 0.00 89 1011.0
20260507090058 -4 0 0.0 0.0 0.00 0.00 0.00 88 1011.1
20260507084605 -3 0 0.0 0.0 0.00 0.00 0.00 88 1011.0
20260507083056 -3 0 0.0 0.0 0.00 0.00 0.00 88 1011.1
20260507081555 -3 0 0.0 0.0 0.00 0.00 0.00 87 1011.1
20260507080054 -3 0 0.0 0.0 0.00 0.00 0.00 86 1011.2
20260507074602 -3 0 0.0 0.0 0.00 0.00 0.00 86 1011.2
20260507073052 -2 0 0.0 0.0 0.00 0.00 0.00 85 1011.4
20260507071550 -2 0 0.0 0.0 0.00 0.00 0.00 83 1011.5
20260507070106 -2 0 0.0 0.0 0.00 0.00 0.00 82 1011.7
20260507064556 -1 0 0.0 0.0 0.00 0.00 0.00 81 1011.7
20260507063052 0 0 0.0 0.0 0.00 0.00 0.00 78 1011.9
20260507061552 0 0 0.0 0.0 0.00 0.00 0.00 76 1011.9
20260507060058 1 0 0.0 0.0 0.00 0.00 0.00 76 1012.0
20260507054609 1 0 0.0 3.2 0.00 0.00 0.00 75 1012.1
20260507053059 1 0 0.0 4.8 0.00 0.00 0.00 75 1012.3
20260507051555 1 0 0.0 3.2 0.00 0.00 0.00 76 1012.3
20260507050056 1 0 0.0 3.2 0.00 0.00 0.00 75 1012.4
20260507044557 1 0 0.0 3.2 0.00 0.00 0.00 76 1012.5
20260507043050 1 0 0.0 3.2 0.00 0.00 0.00 75 1012.5
20260507041600 1 0 0.0 0.0 0.00 0.00 0.00 74 1012.8
20260507040054 1 0 0.0 0.0 0.00 0.00 0.00 75 1012.9
20260507034600 1 0 0.0 3.2 0.00 0.00 0.00 73 1012.8
20260507033056 1 0 0.0 8.0 0.00 0.00 0.00 73 1012.9
20260507031555 1 0 1.6 4.8 0.00 0.00 0.00 73 1013.1
20260507030052 1 0 0.0 4.8 0.00 0.00 0.00 73 1013.1
20260507024557 1 0 0.0 6.4 0.00 0.00 0.00 72 1013.1
20260507023051 1 0 0.0 9.7 0.00 0.00 0.00 71 1013.1
20260507021604 1 0 0.0 0.0 0.00 0.00 0.00 72 1013.2
20260507020108 2 0 0.0 4.8 0.00 0.00 0.00 71 1013.1
20260507014619 2 271 0.0 9.7 0.00 0.00 0.00 71 1013.0
20260507013056 2 290 0.0 6.4 0.00 0.00 0.00 70 1013.1
20260507011558 2 0 0.0 6.4 0.00 0.00 0.00 69 1013.0
20260507010055 2 209 0.0 8.0 0.00 0.00 0.00 69 1013.0
20260507004552 2 284 3.2 16.1 0.00 0.00 0.00 67 1013.0
20260507003054 2 216 1.6 11.3 0.00 0.00 0.00 67 1013.0
20260507001606 3 300 1.6 9.7 0.00 0.00 0.00 65 1013.0
20260507000123 3 275 3.2 12.9 0.00 0.00 0.00 64 1013.0
20260506234612 3 272 1.6 11.3 0.00 0.00 0.00 65 1013.0
20260506233053 3 267 1.6 8.0 0.00 0.00 0.00 65 1013.0
20260506231549 3 289 0.0 12.9 0.00 0.00 0.00 63 1013.2
20260506230103 3 285 1.6 11.3 0.00 0.00 0.00 60 1013.0
20260506224551 3 273 4.8 12.9 0.00 0.00 0.00 60 1013.0
20260506223051 3 0 1.6 14.5 0.00 0.00 0.00 59 1012.9
20260506221559 3 317 3.2 11.3 0.00 0.00 0.00 58 1013.1
20260506220052 4 0 1.6 12.9 0.00 0.00 0.00 59 1012.9
20260506214558 4 355 3.2 12.9 0.00 0.00 0.00 59 1013.1
20260506213059 3 298 4.8 20.9 0.00 0.00 0.00 59 1013.0
20260506211559 4 283 4.8 19.3 0.00 0.00 0.00 59 1013.0
20260506210055 4 229 3.2 17.7 0.00 0.00 0.00 57 1012.9
20260506204556 4 292 4.8 17.7 0.00 0.00 0.00 57 1013.0
20260506203054 5 209 3.2 20.9 0.00 0.00 0.00 58 1013.1
20260506201552 4 0 3.2 16.1 0.00 0.00 0.00 58 1013.2
20260506200056 5 279 1.6 11.3 0.00 0.00 0.00 58 1013.0
20260506194600 5 259 1.6 14.5 0.00 0.00 0.00 59 1013.0
20260506193057 4 283 6.4 22.5 0.00 0.00 0.00 58 1013.0
20260506191559 4 240 3.2 16.1 0.00 0.00 0.00 58 1013.0
20260506190055 4 295 4.8 14.5 0.00 0.00 0.00 58 1013.1
20260506184556 3 24 4.8 17.7 0.00 0.00 0.00 58 1013.0
20260506183102 3 38 3.2 20.9 0.00 0.00 0.00 58 1013.2
20260506181603 3 222 3.2 12.9 0.00 0.00 0.00 60 1013.2
20260506180059 3 304 4.8 12.9 0.00 0.00 0.00 59 1013.3
20260506174554 3 331 4.8 16.1 0.00 0.00 0.00 61 1013.3
20260506173119 2 269 3.2 12.9 0.00 0.00 0.00 66 1013.7
20260506171604 2 350 1.6 9.7 0.00 0.00 0.00 64 1013.7